{"data":{"norad_id":53079,"intl_designator":"2022-077AN","name":"STARLINK-4327","alt_names":[],"object_type":"PAYLOAD","status":"ACTIVE","operator":null,"country":"US","launch_date":"2022-07-11","launch_site_code":"AFWTR","launch_vehicle":null,"mission":null,"orbit_class":"UNKNOWN","rcs_meters":null,"size_class":null,"mass_kg":null,"dimensions":null,"purposes":["comms"],"wikipedia_slug":null,"has_3d_model":false,"image_url":null,"decayed_at":null,"tle_current":{"epoch":"2026-05-25T02:29:00.647808Z","epoch_age_seconds":60103,"freshness":"FRESH","line1":"1 53079U 22077AN  26145.10347972  .00001139  00000+0  82971-4 0  9997","line2":"2 53079  97.4459 326.1695 0001419  91.1251 269.0138 15.05646343212483","mean_motion":15.05646343,"eccentricity":0.0001419,"inclination_deg":97.4459,"raan_deg":326.1695,"arg_perigee_deg":91.1251,"mean_anomaly_deg":269.0138,"bstar":8.2971e-5,"rev_number":21248,"period_min":95.639989210933,"perigee_km":548.53933668193,"apogee_km":550.50540641158,"semimajor_km":6927.6593715468,"source":"CELESTRAK","updated_at":"2026-05-25T13:38:17.313285Z"}}}